Weather History for Caldwell, NJ

Change the Weather History Date:

Saturday, June 29, 2013

  Actual Average Record
Temperature  
Mean Temperature 77 °F -  
Max Temperature 86 °F 82 °F 97 °F (1963)
Min Temperature 68 °F 60 °F 45 °F (1970)
Cooling Degree Days 12    
Growing Degree Days 27 (Base 50)    
Moisture  
Dew Point 65 °F    
Average Humidity 69    
Maximum Humidity 94    
Minimum Humidity 43    
Precipitation  
Precipitation 0.00 in - - ()
Sea Level Pressure  
Sea Level Pressure 29.61 in    
Wind  
Wind Speed 3 mph (SW)    
Max Wind Speed 8 mph    
Max Gust Speed -    
Visibility 10 miles    
Events      
Averages and records for this station are not official NWS values.
T = Trace of Precipitation, MM = Missing Value Source: NWS Daily Summary

Daily Weather History Graph

Daily Weather History Graph

Search for Another Location

Airport:

Trip Planner

Search our weather history database for the weather conditions in past years. The results will help you decide how hot, cold, wet, or windy it might be!

Date:

Astronomy

Jun. 29, 2013 Rise Set
Actual Time 5:28 AM EDT 8:32 PM EDT
Civil Twilight 4:54 AM EDT 9:06 PM EDT
Nautical Twilight 4:12 AM EDT 9:48 PM EDT
Astronomical Twilight 3:21 AM EDT 10:39 PM EDT
Moon No Moon Rise 12:40 PM EDT (6/29)
Length of Visible Light 16h 11m
Length of Day
15h 04m
Waning Gibbous, 56% of the Moon is Illuminated
Jun 29
Waning Gibbous
Jun 30
Last Quarter
Jul 8
New
Jul 15
First Quarter
Jul 22
Full

Hourly Weather History & Observations

Time (EDT) Temp. Heat Index Dew Point Humidity Pressure Visibility Wind Dir Wind Speed Gust Speed Precip Events Conditions
12:53 AM 73.0 °F - 64.9 °F 76% 29.52 in 10.0 mi SSW 3.5 mph - N/A   Unknown
1:53 AM 72.0 °F - 64.9 °F 78% 29.53 in 10.0 mi Variable 3.5 mph - N/A   Unknown
2:53 AM 71.1 °F - 66.0 °F 84% 29.52 in - Calm Calm - N/A   Unknown
3:53 AM 69.1 °F - 66.0 °F 90% 29.53 in 10.0 mi Calm Calm - N/A   Clear
4:53 AM 68.0 °F - 66.0 °F 93% 29.55 in 10.0 mi Calm Calm - N/A   Partly Cloudy
5:35 AM 68.0 °F - 66.2 °F 94% 29.55 in 10.0 mi Calm Calm - N/A   Mostly Cloudy
5:53 AM 68.0 °F - 66.0 °F 93% 29.57 in 10.0 mi South 3.5 mph - N/A   Overcast
6:53 AM 70.0 °F - 66.0 °F 87% 29.59 in 10.0 mi WSW 3.5 mph - N/A   Mostly Cloudy
7:53 AM 71.1 °F - 66.0 °F 84% 29.60 in 9.0 mi Calm Calm - N/A   Mostly Cloudy
8:53 AM 73.0 °F - 66.0 °F 79% 29.61 in 9.0 mi Calm Calm - N/A   Mostly Cloudy
9:53 AM 73.0 °F - 66.0 °F 79% 29.62 in 10.0 mi Variable 4.6 mph - N/A   Overcast
10:53 AM 75.0 °F - 66.0 °F 73% 29.62 in 9.0 mi Variable 3.5 mph - N/A   Mostly Cloudy
11:17 AM 75.2 °F - 64.4 °F 69% 29.61 in 10.0 mi Variable 5.8 mph - N/A   Scattered Clouds
11:28 AM 78.8 °F - 64.4 °F 61% 29.61 in 10.0 mi WNW 8.1 mph - N/A   Mostly Cloudy
11:37 AM 78.8 °F - 64.4 °F 61% 29.61 in 10.0 mi Variable 5.8 mph - N/A   Partly Cloudy
11:53 AM 79.0 °F - 64.9 °F 62% 29.62 in 10.0 mi Variable 5.8 mph - N/A   Partly Cloudy
12:53 PM 82.0 °F 83.4 °F 64.0 °F 54% 29.61 in 10.0 mi Variable 4.6 mph - N/A   Partly Cloudy
1:53 PM 82.9 °F 84.0 °F 63.0 °F 51% 29.61 in 10.0 mi SW 8.1 mph - N/A   Partly Cloudy
2:53 PM 82.9 °F 84.0 °F 63.0 °F 51% 29.62 in 10.0 mi SW 5.8 mph - N/A   Mostly Cloudy
3:53 PM 86.0 °F 86.1 °F 61.0 °F 43% 29.62 in 10.0 mi West 8.1 mph - N/A   Partly Cloudy
4:53 PM 84.0 °F 84.5 °F 62.1 °F 47% 29.63 in 10.0 mi SSW 6.9 mph - N/A   Clear
5:53 PM 84.9 °F 85.4 °F 62.1 °F 46% 29.62 in 10.0 mi Variable 4.6 mph - N/A   Clear
6:53 PM 84.0 °F 84.5 °F 62.1 °F 47% 29.64 in 10.0 mi SW 4.6 mph - N/A   Clear
7:53 PM 82.9 °F 83.7 °F 62.1 °F 49% 29.65 in 10.0 mi SW 3.5 mph - N/A   Clear
8:53 PM 79.0 °F - 64.0 °F 60% 29.68 in 10.0 mi Calm Calm - N/A   Clear
9:53 PM 77.0 °F - 64.0 °F 64% 29.70 in 10.0 mi Calm Calm - N/A   Partly Cloudy
11:53 PM 72.0 °F - 66.0 °F 81% 29.72 in 10.0 mi Calm Calm - N/A   Clear